User: anonymous   Login
Location: PACMO
(41.3967°N, 90.3760°W)
Time: 14:58:21
(UTC-05:00)
Language:

BREEZE-M DEB (TANK) - Orbit

View from above orbital plane
View from above orbital plane
View from above satellite
View from above satellite

Ground track
Ground track

The orbit data is extracted from the following two-line orbital elements,

1 31863U 07032B   16124.48222564 +.00000414 +00000-0 +27180-3 0  9990
2 31863 045.9646 334.0955 4985835 004.5187 358.7487 05.51951029176859
Epoch (UTC): 03 May 2016 11:34:24
Eccentricity: 0.4985835
inclination: 45.9646°
perigee height: 403 km
apogee height: 13890 km
right ascension of ascending node: 334.0955°
argument of perigee: 4.5187°
revolutions per day: 5.51951029
mean anomaly at epoch: 358.7487°
orbit number at epoch: 17685

The dashed part of the orbit path shows where the satellite is in the earth's shadow,  

DLR